When you browse on this site, cookies collect data to enhance your experience and personalize the content and advertising you see.
Visit our Privacy Policy to learn more. By continuing to use the site, you agree to this use of cookies and data.
  • In Schweiz
  • Länderverzeichnis
  • Für 7 Tage
  • Wassertemperatur
  • Satellitenkarten
  • Wetterkarte
  • Widgets
  • user-avatar
    Anmelden

    Stündliche Wetter Rottenburg

    Heute, 18 Juli, Donnerstag

    Zeit Temperatur Niederschläge Wind Luftdruck Luftfeuchtigkeit
    00:00 +16°C° 0 mm 1 m/S 725 mmHg 76%
    01:00 +16°C° 0 mm 1 m/S 725 mmHg 77%
    02:00 +16°C° 0 mm 1 m/S 725 mmHg 77%
    03:00 +15°C° 0 mm 1 m/S 725 mmHg 76%
    04:00 +15°C° 0 mm 1 m/S 725 mmHg 76%
    05:00 +16°C° 0 mm 1 m/S 725 mmHg 75%
    06:00 +18°C° 0 mm 1 m/S 725 mmHg 75%
    07:00 +19°C° 0 mm 1 m/S 725 mmHg 75%
    08:00 +21°C° 0 mm 1 m/S 726 mmHg 69%
    09:00 +22°C° 0 mm 1 m/S 726 mmHg 63%
    10:00 +24°C° 0 mm 2 m/S 726 mmHg 58%
    11:00 +25°C° 0 mm 2 m/S 726 mmHg 53%
    12:00 +26°C° 0 mm 2 m/S 726 mmHg 49%
    13:00 +26°C° 0 mm 2 m/S 726 mmHg 45%
    14:00 +26°C° 0 mm 2 m/S 726 mmHg 46%
    15:00 +26°C° 0 mm 2 m/S 726 mmHg 47%
    16:00 +26°C° 0 mm 3 m/S 725 mmHg 49%
    17:00 +25°C° 0 mm 2 m/S 726 mmHg 56%
    18:00 +24°C° 0 mm 1 m/S 726 mmHg 63%
    19:00 +23°C° 0 mm 1 m/S 726 mmHg 71%
    20:00 +22°C° 0.3 mm 1 m/S 726 mmHg 75%
    21:00 +20°C° 0.3 mm 1 m/S 726 mmHg 78%
    22:00 +19°C° 0.3 mm 1 m/S 726 mmHg 82%
    23:00 +19°C° 0.4 mm 1 m/S 726 mmHg 84%

    Morgen, 19 Juli, Freitag

    Zeit Temperatur Niederschläge Wind Luftdruck Luftfeuchtigkeit
    00:00 +18°C° 0.4 mm 1 m/S 726 mmHg 87%
    01:00 +18°C° 0.4 mm 1 m/S 726 mmHg 89%
    02:00 +18°C° 0 mm 1 m/S 727 mmHg 89%
    03:00 +18°C° 0 mm 1 m/S 727 mmHg 90%
    04:00 +18°C° 0 mm 1 m/S 727 mmHg 90%
    05:00 +18°C° 0 mm 1 m/S 727 mmHg 88%
    06:00 +19°C° 0 mm 1 m/S 727 mmHg 87%
    07:00 +20°C° 0 mm 1 m/S 727 mmHg 85%
    08:00 +21°C° 0.1 mm 1 m/S 728 mmHg 78%
    09:00 +23°C° 0.1 mm 1 m/S 728 mmHg 70%
    10:00 +25°C° 0.1 mm 1 m/S 728 mmHg 63%
    11:00 +25°C° 0.3 mm 1 m/S 728 mmHg 63%
    12:00 +25°C° 0.3 mm 1 m/S 727 mmHg 63%
    13:00 +25°C° 0.3 mm 2 m/S 727 mmHg 63%
    14:00 +26°C° 0.1 mm 2 m/S 727 mmHg 60%
    15:00 +26°C° 0.1 mm 1 m/S 727 mmHg 58%
    16:00 +27°C° 0.1 mm 1 m/S 727 mmHg 56%
    17:00 +25°C° 0.1 mm 1 m/S 727 mmHg 64%
    18:00 +24°C° 0.1 mm 1 m/S 727 mmHg 72%
    19:00 +23°C° 0.1 mm 1 m/S 727 mmHg 80%
    20:00 +22°C° 0 mm 1 m/S 727 mmHg 83%
    21:00 +20°C° 0 mm 1 m/S 728 mmHg 85%
    22:00 +17°C° 0 mm 0 m/S 728 mmHg 88%
    23:00 +17°C° 0 mm 0 m/S 728 mmHg 89%

    übermorgen, 20 Juli, Samstag

    Zeit Temperatur Niederschläge Wind Luftdruck Luftfeuchtigkeit
    00:00 +16°C° 0 mm 0 m/S 727 mmHg 89%
    01:00 +18°C° 0 mm 1 m/S 727 mmHg 90%
    02:00 +18°C° 0 mm 1 m/S 727 mmHg 90%
    03:00 +16°C° 0 mm 1 m/S 727 mmHg 91%
    04:00 +16°C° 0 mm 1 m/S 727 mmHg 91%
    05:00 +18°C° 0 mm 1 m/S 727 mmHg 88%
    06:00 +20°C° 0 mm 1 m/S 727 mmHg 85%
    07:00 +21°C° 0 mm 1 m/S 727 mmHg 82%
    08:00 +23°C° 0 mm 2 m/S 727 mmHg 74%
    09:00 +25°C° 0 mm 2 m/S 727 mmHg 66%
    10:00 +27°C° 0 mm 2 m/S 728 mmHg 59%
    11:00 +28°C° 0.1 mm 3 m/S 728 mmHg 55%
    12:00 +29°C° 0.1 mm 3 m/S 728 mmHg 51%
    13:00 +30°C° 0.1 mm 3 m/S 728 mmHg 47%
    14:00 +30°C° 0 mm 3 m/S 728 mmHg 47%
    15:00 +30°C° 0 mm 4 m/S 727 mmHg 48%
    16:00 +32°C° 0 mm 4 m/S 727 mmHg 48%
    17:00 +29°C° 0 mm 3 m/S 727 mmHg 55%
    18:00 +27°C° 0 mm 3 m/S 727 mmHg 61%
    19:00 +25°C° 0 mm 2 m/S 727 mmHg 67%
    20:00 +24°C° 0.3 mm 2 m/S 728 mmHg 72%
    21:00 +22°C° 0.3 mm 1 m/S 728 mmHg 78%
    22:00 +21°C° 0.3 mm 1 m/S 728 mmHg 84%
    23:00 +21°C° 0.2 mm 1 m/S 728 mmHg 85%

    21 Juli, Sonntag

    Zeit Temperatur Niederschläge Wind Luftdruck Luftfeuchtigkeit
    00:00 +20°C° 0.2 mm 1 m/S 728 mmHg 86%
    01:00 +20°C° 0.2 mm 1 m/S 729 mmHg 87%
    02:00 +19°C° 0.2 mm 1 m/S 729 mmHg 88%
    03:00 +19°C° 0.2 mm 1 m/S 729 mmHg 89%
    04:00 +19°C° 0.2 mm 1 m/S 729 mmHg 90%
    05:00 +20°C° 0 mm 1 m/S 730 mmHg 89%
    06:00 +21°C° 0 mm 1 m/S 730 mmHg 88%
    07:00 +22°C° 0 mm 1 m/S 731 mmHg 87%
    08:00 +23°C° 0.1 mm 1 m/S 731 mmHg 81%
    09:00 +25°C° 0.1 mm 1 m/S 731 mmHg 75%
    10:00 +26°C° 0.1 mm 1 m/S 732 mmHg 69%
    11:00 +27°C° 0.3 mm 1 m/S 732 mmHg 66%
    12:00 +28°C° 0.3 mm 1 m/S 732 mmHg 64%
    13:00 +28°C° 0.3 mm 2 m/S 732 mmHg 61%
    14:00 +29°C° 0.1 mm 2 m/S 731 mmHg 59%
    15:00 +29°C° 0.1 mm 2 m/S 731 mmHg 58%
    16:00 +29°C° 0.1 mm 2 m/S 731 mmHg 56%
    17:00 +28°C° 0 mm 2 m/S 731 mmHg 62%
    18:00 +27°C° 0 mm 2 m/S 731 mmHg 68%
    19:00 +26°C° 0 mm 1 m/S 731 mmHg 74%
    20:00 +24°C° 0 mm 1 m/S 731 mmHg 76%
    21:00 +23°C° 0 mm 1 m/S 731 mmHg 79%
    22:00 +19°C° 0 mm 0 m/S 731 mmHg 82%
    23:00 +19°C° 0 mm 0 m/S 731 mmHg 82%

    22 Juli, Montag

    Zeit Temperatur Niederschläge Wind Luftdruck Luftfeuchtigkeit
    00:00 +18°C° 0 mm 0 m/S 731 mmHg 82%
    01:00 +18°C° 0 mm 0 m/S 731 mmHg 82%
    02:00 +18°C° 0 mm 0 m/S 731 mmHg 82%
    03:00 +17°C° 0 mm 0 m/S 731 mmHg 83%
    04:00 +17°C° 0 mm 0 m/S 731 mmHg 84%
    05:00 +18°C° 0 mm 0 m/S 731 mmHg 82%
    06:00 +19°C° 0 mm 0 m/S 731 mmHg 80%
    07:00 +21°C° 0 mm 0 m/S 732 mmHg 78%
    08:00 +22°C° 0 mm 0 m/S 732 mmHg 73%
    09:00 +24°C° 0 mm 0 m/S 732 mmHg 68%
    10:00 +28°C° 0 mm 1 m/S 732 mmHg 62%
    11:00 +29°C° 0.1 mm 1 m/S 732 mmHg 61%
    12:00 +30°C° 0.1 mm 1 m/S 732 mmHg 60%
    13:00 +30°C° 0.1 mm 1 m/S 731 mmHg 58%
    14:00 +30°C° 0.2 mm 1 m/S 731 mmHg 58%
    15:00 +30°C° 0.2 mm 1 m/S 731 mmHg 58%
    16:00 +30°C° 0.2 mm 1 m/S 731 mmHg 58%
    17:00 +29°C° 0 mm 1 m/S 731 mmHg 63%
    18:00 +28°C° 0 mm 1 m/S 731 mmHg 68%
    19:00 +27°C° 0 mm 1 m/S 731 mmHg 74%
    20:00 +25°C° 0 mm 1 m/S 731 mmHg 77%
    21:00 +23°C° 0 mm 1 m/S 731 mmHg 81%
    22:00 +22°C° 0 mm 1 m/S 731 mmHg 85%
    23:00 +21°C° 0 mm 1 m/S 731 mmHg 86%

    23 Juli, Dienstag

    Zeit Temperatur Niederschläge Wind Luftdruck Luftfeuchtigkeit
    00:00 +19°C° 0 mm 0 m/S 731 mmHg 87%
    01:00 +19°C° 0 mm 0 m/S 731 mmHg 89%
    02:00 +18°C° 0 mm 0 m/S 731 mmHg 90%
    03:00 +18°C° 0 mm 0 m/S 730 mmHg 90%
    04:00 +18°C° 0 mm 0 m/S 730 mmHg 91%
    05:00 +19°C° 0 mm 0 m/S 730 mmHg 89%
    06:00 +20°C° 0 mm 0 m/S 730 mmHg 86%
    07:00 +21°C° 0 mm 0 m/S 731 mmHg 84%
    08:00 +22°C° 0 mm 0 m/S 731 mmHg 77%
    09:00 +26°C° 0 mm 1 m/S 731 mmHg 71%
    10:00 +28°C° 0 mm 1 m/S 731 mmHg 64%
    11:00 +29°C° 0 mm 1 m/S 730 mmHg 61%
    12:00 +30°C° 0 mm 2 m/S 730 mmHg 57%
    13:00 +31°C° 0 mm 2 m/S 730 mmHg 53%
    14:00 +31°C° 0 mm 2 m/S 730 mmHg 53%
    15:00 +31°C° 0 mm 2 m/S 729 mmHg 53%
    16:00 +31°C° 0 mm 2 m/S 729 mmHg 53%
    17:00 +30°C° 0 mm 2 m/S 729 mmHg 60%
    18:00 +28°C° 0 mm 2 m/S 729 mmHg 67%
    19:00 +27°C° 0 mm 2 m/S 729 mmHg 74%
    20:00 +25°C° 0 mm 2 m/S 729 mmHg 77%
    21:00 +24°C° 0 mm 2 m/S 729 mmHg 81%
    22:00 +22°C° 0 mm 1 m/S 729 mmHg 85%
    23:00 +22°C° 0 mm 1 m/S 729 mmHg 86%
    Mehr zeigen